User: anonymous   Login
Location: Krakow
(50.0212°N, 19.9423°E)
Time: 00:36:03
(UTC+02:00)
Language:

NOAA 18 - Orbit

View from above orbital plane
View from above orbital plane
View from above satellite
View from above satellite

Ground track
Ground track

The orbit data is extracted from the following two-line orbital elements,

1 28654U 05018A   24115.39971650  .00000597  00000-0  34229-3 0  9996
2 28654  98.8750 192.8099 0013836 211.6711 148.3630 14.13179526975669
Epoch (UTC): 24 April 2024 09:35:35
Eccentricity: 0.0013836
inclination: 98.8750°
perigee height: 838 km
apogee height: 858 km
right ascension of ascending node: 192.8099°
argument of perigee: 211.6711°
revolutions per day: 14.13179526
mean anomaly at epoch: 148.3630°
orbit number at epoch: 97566

The dashed part of the orbit path shows where the satellite is in the earth's shadow,  

DLR